owner,sensor,date,latitude,longitude,vertical_datum,direction_of_sea_water_velocity,sea_water_speed,upward_sea_water_velocity,qcFlag 
TABS,ioos:station:wmo:42046:1,2012-12-01T00:00:00Z,27.8903,-94.0367,2.0,36.00298285,12.0273771,-99999.0,'11111222,11111222,99999999' 
TABS,ioos:station:wmo:42046:1,2012-12-01T00:30:00Z,27.8903,-94.0367,2.0,38.1007258,16.48180209,-99999.0,'11111222,11111222,99999999' 
TABS,ioos:station:wmo:42046:1,2012-12-01T01:00:00Z,27.8903,-94.0367,2.0,41.4941624,13.64441278,-99999.0,'11111222,11111222,99999999' 
TABS,ioos:station:wmo:42046:1,2012-12-01T01:30:00Z,27.8903,-94.0367,2.0,37.49277612,11.9607065,-99999.0,'11111222,11111222,99999999' 
TABS,ioos:station:wmo:42046:1,2012-12-01T02:00:00Z,27.8903,-94.0367,2.0,42.00355399,13.1206288,-99999.0,'11111222,11111222,99999999' 
TABS,ioos:station:wmo:42046:1,2012-12-01T02:30:00Z,27.8903,-94.0367,2.0,46.7050075,13.54709194,-99999.0,'11111222,11111222,99999999' 
TABS,ioos:station:wmo:42046:1,2012-12-01T03:00:00Z,27.8903,-94.0367,2.0,48.7115404,13.65458531,-99999.0,'11111222,11111222,99999999' 
TABS,ioos:station:wmo:42046:1,2012-12-01T03:30:00Z,27.8903,-94.0367,2.0,30.41923575,9.381396485,-99999.0,'11133222,11111222,99999999' 
TABS,ioos:station:wmo:42046:1,2012-12-01T04:00:00Z,27.8903,-94.0367,2.0,28.7833982,8.203572393,-99999.0,'11133222,11111222,99999999' 
TABS,ioos:station:wmo:42046:1,2012-12-01T04:30:00Z,27.8903,-94.0367,2.0,51.13977327,7.140308117,-99999.0,'11133222,11111222,99999999' 
TABS,ioos:station:wmo:42046:1,2012-12-01T05:00:00Z,27.8903,-94.0367,2.0,22.05197498,8.922746214,-99999.0,'11133222,11111222,99999999' 
TABS,ioos:station:wmo:42046:1,2012-12-01T05:30:00Z,27.8903,-94.0367,2.0,38.03514883,8.163687892,-99999.0,'11133222,11111222,99999999' 
TABS,ioos:station:wmo:42046:1,2012-12-01T06:00:00Z,27.8903,-94.0367,2.0,23.17665045,6.809552114,-99999.0,'11133222,11111222,99999999' 
TABS,ioos:station:wmo:42046:1,2012-12-01T06:30:00Z,27.8903,-94.0367,2.0,39.73628731,7.399256719,-99999.0,'11133222,11111222,99999999' 
TABS,ioos:station:wmo:42046:1,2012-12-01T07:00:00Z,27.8903,-94.0367,2.0,21.0728878,5.840590724,-99999.0,'11133222,11111222,99999999' 
TABS,ioos:station:wmo:42046:1,2012-12-01T07:30:00Z,27.8903,-94.0367,2.0,17.4999261,4.456242812,-99999.0,'11133222,11111222,99999999' 
TABS,ioos:station:wmo:42046:1,2012-12-01T08:00:00Z,27.8903,-94.0367,2.0,15.296722,4.851886231,-99999.0,'11133222,11111222,99999999' 
TABS,ioos:station:wmo:42046:1,2012-12-01T08:30:00Z,27.8903,-94.0367,2.0,18.97057391,5.075677295,-99999.0,'11133222,11111222,99999999' 
TABS,ioos:station:wmo:42046:1,2012-12-01T09:00:00Z,27.8903,-94.0367,2.0,17.30069719,3.833431883,-99999.0,'11133222,11111222,99999999' 
TABS,ioos:station:wmo:42046:1,2012-12-01T09:30:00Z,27.8903,-94.0367,2.0,5.231005402,5.70375315,-99999.0,'11133222,11111222,99999999' 
TABS,ioos:station:wmo:42046:1,2012-12-01T10:00:00Z,27.8903,-94.0367,2.0,26.56519952,4.024922359,-99999.0,'11133222,11111222,99999999' 
TABS,ioos:station:wmo:42046:1,2012-12-01T10:30:00Z,27.8903,-94.0367,2.0,25.87179137,2.956298361,-99999.0,'11133222,11111222,99999999' 
TABS,ioos:station:wmo:42046:1,2012-12-01T11:00:00Z,27.8903,-94.0367,2.0,42.1377067,1.415980226,-99999.0,'11133222,11111222,99999999' 
TABS,ioos:station:wmo:42046:1,2012-12-01T11:30:00Z,27.8903,-94.0367,2.0,33.23906171,4.579192068,-99999.0,'11133222,11111222,99999999' 
TABS,ioos:station:wmo:42046:1,2012-12-01T12:00:00Z,27.8903,-94.0367,2.0,33.24904799,2.881752939,-99999.0,'11133222,11111222,99999999' 
TABS,ioos:station:wmo:42046:1,2012-12-01T12:30:00Z,27.8903,-94.0367,2.0,30.84060258,5.578861891,-99999.0,'11133222,11111222,99999999' 
TABS,ioos:station:wmo:42046:1,2012-12-01T13:00:00Z,27.8903,-94.0367,2.0,2.939459585,4.09538765,-99999.0,'11133222,11111222,99999999' 
TABS,ioos:station:wmo:42046:1,2012-12-01T13:30:00Z,27.8903,-94.0367,2.0,74.14613136,3.440886514,-99999.0,'11133222,11111222,99999999' 
TABS,ioos:station:wmo:42046:1,2012-12-01T14:00:00Z,27.8903,-94.0367,2.0,10.52947768,6.621495299,-99999.0,'11133222,11111222,99999999' 
TABS,ioos:station:wmo:42046:1,2012-12-01T14:30:00Z,27.8903,-94.0367,2.0,9.46251054,5.717796778,-99999.0,'11133222,11111222,99999999' 
TABS,ioos:station:wmo:42046:1,2012-12-01T15:00:00Z,27.8903,-94.0367,2.0,15.03187139,4.048530598,-99999.0,'11133222,11111222,99999999' 
TABS,ioos:station:wmo:42046:1,2012-12-01T15:30:00Z,27.8903,-94.0367,2.0,355.4080092,4.996038431,-99999.0,'11133222,11111222,99999999' 
TABS,ioos:station:wmo:42046:1,2012-12-01T16:00:00Z,27.8903,-94.0367,2.0,12.37675902,6.53179914,-99999.0,'11133222,11111222,99999999' 
TABS,ioos:station:wmo:42046:1,2012-12-01T16:30:00Z,27.8903,-94.0367,2.0,9.614757247,5.568213358,-99999.0,'11133222,11111222,99999999' 
TABS,ioos:station:wmo:42046:1,2012-12-01T17:00:00Z,27.8903,-94.0367,2.0,9.141829305,4.40596187,-99999.0,'11133222,11111222,99999999' 
TABS,ioos:station:wmo:42046:1,2012-12-01T17:30:00Z,27.8903,-94.0367,2.0,352.3352678,5.922921576,-99999.0,'11133222,11111222,99999999' 
TABS,ioos:station:wmo:42046:1,2012-12-01T18:00:00Z,27.8903,-94.0367,2.0,359.7913573,8.230054678,-99999.0,'11133222,11144222,99999999' 
TABS,ioos:station:wmo:42046:1,2012-12-01T18:30:00Z,27.8903,-94.0367,2.0,6.417892432,6.530926427,-99999.0,'11133222,11111222,99999999' 
TABS,ioos:station:wmo:42046:1,2012-12-01T19:00:00Z,27.8903,-94.0367,2.0,351.4446722,5.713580314,-99999.0,'11133222,11111222,99999999' 
TABS,ioos:station:wmo:42046:1,2012-12-01T19:30:00Z,27.8903,-94.0367,2.0,4.907042141,6.313137097,-99999.0,'11133222,11111222,99999999' 
TABS,ioos:station:wmo:42046:1,2012-12-01T20:00:00Z,27.8903,-94.0367,2.0,3.945387462,7.557909764,-99999.0,'11133222,11111222,99999999' 
TABS,ioos:station:wmo:42046:1,2012-12-01T20:30:00Z,27.8903,-94.0367,2.0,357.7615458,7.936056955,-99999.0,'11133222,11111222,99999999' 
TABS,ioos:station:wmo:42046:1,2012-12-01T21:00:00Z,27.8903,-94.0367,2.0,357.5752046,7.326561267,-99999.0,'11133222,11111222,99999999' 
TABS,ioos:station:wmo:42046:1,2012-12-01T21:30:00Z,27.8903,-94.0367,2.0,354.5486721,7.26285068,-99999.0,'11133222,11111222,99999999' 
TABS,ioos:station:wmo:42046:1,2012-12-01T22:00:00Z,27.8903,-94.0367,2.0,355.5630275,6.850532826,-99999.0,'11133222,11111222,99999999' 
TABS,ioos:station:wmo:42046:1,2012-12-01T22:30:00Z,27.8903,-94.0367,2.0,356.4746035,4.228001892,-99999.0,'11133222,11111222,99999999' 
TABS,ioos:station:wmo:42046:1,2012-12-01T23:00:00Z,27.8903,-94.0367,2.0,30.53768617,3.227692674,-99999.0,'11133222,11111222,99999999' 
TABS,ioos:station:wmo:42046:1,2012-12-01T23:30:00Z,27.8903,-94.0367,2.0,41.5782542,3.435593107,-99999.0,'11133222,11111222,99999999' 
TABS,ioos:station:wmo:42046:1,2012-12-02T00:00:00Z,27.8903,-94.0367,2.0,45.00010523,1.400071427,-99999.0,'11133222,11111222,99999999' 
TABS,ioos:station:wmo:42046:1,2012-12-02T00:30:00Z,27.8903,-94.0367,2.0,72.08125731,1.755135322,-99999.0,'11133222,11111222,99999999' 
TABS,ioos:station:wmo:42046:1,2012-12-02T01:00:00Z,27.8903,-94.0367,2.0,56.160023,2.11896201,-99999.0,'11133222,11111222,99999999' 
TABS,ioos:station:wmo:42046:1,2012-12-02T01:30:00Z,27.8903,-94.0367,2.0,204.7748722,1.431782106,-99999.0,'11133222,11111222,99999999' 
TABS,ioos:station:wmo:42046:1,2012-12-02T02:00:00Z,27.8903,-94.0367,2.0,168.8569257,0.672681202,-99999.0,'11133222,11111222,99999999' 
TABS,ioos:station:wmo:42046:1,2012-12-02T02:30:00Z,27.8903,-94.0367,2.0,245.2502705,1.552610705,-99999.0,'11133222,11111222,99999999' 
TABS,ioos:station:wmo:42046:1,2012-12-02T03:00:00Z,27.8903,-94.0367,2.0,257.0049927,0.133416641,-99999.0,'11133222,11111222,99999999' 
TABS,ioos:station:wmo:42046:1,2012-12-02T03:30:00Z,27.8903,-94.0367,2.0,260.008559,3.919438735,-99999.0,'11133222,11111222,99999999' 
TABS,ioos:station:wmo:42046:1,2012-12-02T04:00:00Z,27.8903,-94.0367,2.0,245.7138107,6.297277189,-99999.0,'11133222,11111222,99999999' 
TABS,ioos:station:wmo:42046:1,2012-12-02T04:30:00Z,27.8903,-94.0367,2.0,269.8344624,3.470014409,-99999.0,'11133222,11111222,99999999' 
TABS,ioos:station:wmo:42046:1,2012-12-02T05:00:00Z,27.8903,-94.0367,2.0,259.087433,6.497484128,-99999.0,'11133222,11111222,99999999' 
TABS,ioos:station:wmo:42046:1,2012-12-02T05:30:00Z,27.8903,-94.0367,2.0,258.567072,5.499109019,-99999.0,'11133222,11111222,99999999' 
TABS,ioos:station:wmo:42046:1,2012-12-02T06:00:00Z,27.8903,-94.0367,2.0,270.2919993,3.93005089,-99999.0,'11133222,11111222,99999999' 
TABS,ioos:station:wmo:42046:1,2012-12-02T06:30:00Z,27.8903,-94.0367,2.0,277.0288007,6.619743197,-99999.0,'11133222,11111222,99999999' 
TABS,ioos:station:wmo:42046:1,2012-12-02T07:00:00Z,27.8903,-94.0367,2.0,276.4511766,8.010717821,-99999.0,'11133222,11111222,99999999' 
TABS,ioos:station:wmo:42046:1,2012-12-02T07:30:00Z,27.8903,-94.0367,2.0,271.2587356,8.652086454,-99999.0,'11133222,11111222,99999999' 
TABS,ioos:station:wmo:42046:1,2012-12-02T08:00:00Z,27.8903,-94.0367,2.0,274.0454706,10.06507327,-99999.0,'11111222,11111222,99999999' 
TABS,ioos:station:wmo:42046:1,2012-12-02T08:30:00Z,27.8903,-94.0367,2.0,276.1449476,8.408305418,-99999.0,'11133222,11111222,99999999' 
TABS,ioos:station:wmo:42046:1,2012-12-02T09:00:00Z,27.8903,-94.0367,2.0,273.6819291,7.475426409,-99999.0,'11133222,11111222,99999999' 
TABS,ioos:station:wmo:42046:1,2012-12-02T09:30:00Z,27.8903,-94.0367,2.0,301.2072681,6.465554887,-99999.0,'11133222,11111222,99999999' 
TABS,ioos:station:wmo:42046:1,2012-12-02T10:00:00Z,27.8903,-94.0367,2.0,301.1006116,7.918112149,-99999.0,'11133222,11111222,99999999' 
TABS,ioos:station:wmo:42046:1,2012-12-02T10:30:00Z,27.8903,-94.0367,2.0,286.9979873,11.22012923,-99999.0,'11111222,11111222,99999999' 
TABS,ioos:station:wmo:42046:1,2012-12-02T11:00:00Z,27.8903,-94.0367,2.0,287.6630958,9.854552248,-99999.0,'11133222,11111222,99999999' 
TABS,ioos:station:wmo:42046:1,2012-12-02T11:30:00Z,27.8903,-94.0367,2.0,303.7860161,11.63485281,-99999.0,'11111222,11111222,99999999' 
TABS,ioos:station:wmo:42046:1,2012-12-02T12:00:00Z,27.8903,-94.0367,2.0,282.2680882,8.330216084,-99999.0,'11133222,11111222,99999999' 
TABS,ioos:station:wmo:42046:1,2012-12-02T12:30:00Z,27.8903,-94.0367,2.0,281.5276292,9.307738716,-99999.0,'11133222,11111222,99999999' 
TABS,ioos:station:wmo:42046:1,2012-12-02T13:00:00Z,27.8903,-94.0367,2.0,276.9116319,7.313138861,-99999.0,'11133222,11111222,99999999' 
TABS,ioos:station:wmo:42046:1,2012-12-02T13:30:00Z,27.8903,-94.0367,2.0,292.0514321,7.671147241,-99999.0,'11133222,11111222,99999999' 
TABS,ioos:station:wmo:42046:1,2012-12-02T14:00:00Z,27.8903,-94.0367,2.0,340.1777922,8.227496582,-99999.0,'11133222,11111222,99999999' 
TABS,ioos:station:wmo:42046:1,2012-12-02T14:30:00Z,27.8903,-94.0367,2.0,339.1571694,11.21385304,-99999.0,'11111222,11111222,99999999' 
TABS,ioos:station:wmo:42046:1,2012-12-02T15:00:00Z,27.8903,-94.0367,2.0,354.0837327,13.29079757,-99999.0,'11111222,11111222,99999999' 
TABS,ioos:station:wmo:42046:1,2012-12-02T15:30:00Z,27.8903,-94.0367,2.0,351.5538975,14.0928528,-99999.0,'11111222,11111222,99999999' 
TABS,ioos:station:wmo:42046:1,2012-12-02T16:00:00Z,27.8903,-94.0367,2.0,353.5429987,13.51574267,-99999.0,'11111222,11111222,99999999' 
TABS,ioos:station:wmo:42046:1,2012-12-02T16:30:00Z,27.8903,-94.0367,2.0,351.3017262,15.53872903,-99999.0,'11111222,11111222,99999999' 
TABS,ioos:station:wmo:42046:1,2012-12-02T17:00:00Z,27.8903,-94.0367,2.0,2.1907792,14.65070647,-99999.0,'11111222,11111222,99999999' 
TABS,ioos:station:wmo:42046:1,2012-12-02T17:30:00Z,27.8903,-94.0367,2.0,3.264945312,14.22308335,-99999.0,'11111222,11111222,99999999' 
TABS,ioos:station:wmo:42046:1,2012-12-02T18:00:00Z,27.8903,-94.0367,2.0,349.1698194,14.5287921,-99999.0,'11111222,11111222,99999999' 
TABS,ioos:station:wmo:42046:1,2012-12-02T18:30:00Z,27.8903,-94.0367,2.0,353.9298359,17.58862416,-99999.0,'11111222,11111222,99999999' 
TABS,ioos:station:wmo:42046:1,2012-12-02T19:00:00Z,27.8903,-94.0367,2.0,350.8069956,18.90280402,-99999.0,'11111222,11111222,99999999' 
TABS,ioos:station:wmo:42046:1,2012-12-02T19:30:00Z,27.8903,-94.0367,2.0,356.8930122,18.81766457,-99999.0,'11111222,11111222,99999999' 
TABS,ioos:station:wmo:42046:1,2012-12-02T20:00:00Z,27.8903,-94.0367,2.0,358.4287499,18.59699438,-99999.0,'11111222,11111222,99999999' 
TABS,ioos:station:wmo:42046:1,2012-12-02T20:30:00Z,27.8903,-94.0367,2.0,357.8517504,16.27143817,-99999.0,'11111222,11111222,99999999' 
TABS,ioos:station:wmo:42046:1,2012-12-02T21:00:00Z,27.8903,-94.0367,2.0,0.146447113,19.59006381,-99999.0,'11111222,11111222,99999999' 
TABS,ioos:station:wmo:42046:1,2012-12-02T21:30:00Z,27.8903,-94.0367,2.0,352.4940242,23.11810546,-99999.0,'11111222,11111222,99999999' 
TABS,ioos:station:wmo:42046:1,2012-12-02T22:00:00Z,27.8903,-94.0367,2.0,357.4669445,17.64724624,-99999.0,'11111222,11111222,99999999' 
TABS,ioos:station:wmo:42046:1,2012-12-02T22:30:00Z,27.8903,-94.0367,2.0,351.1377416,14.60436236,-99999.0,'11111222,11111222,99999999' 
TABS,ioos:station:wmo:42046:1,2012-12-02T23:00:00Z,27.8903,-94.0367,2.0,353.834774,9.776548471,-99999.0,'11133222,11111222,99999999' 
TABS,ioos:station:wmo:42046:1,2012-12-02T23:30:00Z,27.8903,-94.0367,2.0,339.2239595,9.133958616,-99999.0,'11133222,11111222,99999999' 
TABS,ioos:station:wmo:42046:1,2012-12-03T00:00:00Z,27.8903,-94.0367,2.0,344.3907643,10.77749507,-99999.0,'11111222,11111222,99999999' 
TABS,ioos:station:wmo:42046:1,2012-12-03T00:30:00Z,27.8903,-94.0367,2.0,10.38345432,11.76262301,-99999.0,'11111222,11111222,99999999' 
TABS,ioos:station:wmo:42046:1,2012-12-03T01:00:00Z,27.8903,-94.0367,2.0,3.721515021,8.628192163,-99999.0,'11133222,11111222,99999999' 
TABS,ioos:station:wmo:42046:1,2012-12-03T01:30:00Z,27.8903,-94.0367,2.0,347.7088904,5.495980349,-99999.0,'11133222,11111222,99999999' 
TABS,ioos:station:wmo:42046:1,2012-12-03T02:00:00Z,27.8903,-94.0367,2.0,333.235121,7.683176426,-99999.0,'11133222,11111222,99999999' 
TABS,ioos:station:wmo:42046:1,2012-12-03T02:30:00Z,27.8903,-94.0367,2.0,346.3333792,6.771735376,-99999.0,'11133222,11111222,99999999' 
TABS,ioos:station:wmo:42046:1,2012-12-03T03:00:00Z,27.8903,-94.0367,2.0,333.9600175,11.23000445,-99999.0,'11111222,11111222,99999999' 
TABS,ioos:station:wmo:42046:1,2012-12-03T03:30:00Z,27.8903,-94.0367,2.0,314.6099653,9.341097366,-99999.0,'11133222,11111222,99999999' 
TABS,ioos:station:wmo:42046:1,2012-12-03T04:00:00Z,27.8903,-94.0367,2.0,328.2716348,10.5343818,-99999.0,'11111222,11111222,99999999' 
TABS,ioos:station:wmo:42046:1,2012-12-03T04:30:00Z,27.8903,-94.0367,2.0,328.3404773,8.611579414,-99999.0,'11133222,11111222,99999999' 
TABS,ioos:station:wmo:42046:1,2012-12-03T05:00:00Z,27.8903,-94.0367,2.0,335.0252812,6.607889224,-99999.0,'11133222,11111222,99999999' 
TABS,ioos:station:wmo:42046:1,2012-12-03T05:30:00Z,27.8903,-94.0367,2.0,333.6992548,10.67510187,-99999.0,'11111222,11111222,99999999' 
TABS,ioos:station:wmo:42046:1,2012-12-03T06:00:00Z,27.8903,-94.0367,2.0,333.4112784,10.70182227,-99999.0,'11111222,11111222,99999999' 
TABS,ioos:station:wmo:42046:1,2012-12-03T06:30:00Z,27.8903,-94.0367,2.0,305.2884027,10.9401691,-99999.0,'11111222,11111222,99999999' 
TABS,ioos:station:wmo:42046:1,2012-12-03T07:00:00Z,27.8903,-94.0367,2.0,321.3651041,10.90717654,-99999.0,'11111222,11111222,99999999' 
TABS,ioos:station:wmo:42046:1,2012-12-03T07:30:00Z,27.8903,-94.0367,2.0,332.9234764,12.01710864,-99999.0,'11111222,11111222,99999999' 
TABS,ioos:station:wmo:42046:1,2012-12-03T08:00:00Z,27.8903,-94.0367,2.0,321.0857715,10.5387096,-99999.0,'11111222,11111222,99999999' 
TABS,ioos:station:wmo:42046:1,2012-12-03T08:30:00Z,27.8903,-94.0367,2.0,326.3391006,11.00525329,-99999.0,'11111222,11111222,99999999' 
TABS,ioos:station:wmo:42046:1,2012-12-03T09:00:00Z,27.8903,-94.0367,2.0,313.5152057,11.45897901,-99999.0,'11111222,11111222,99999999' 
TABS,ioos:station:wmo:42046:1,2012-12-03T09:30:00Z,27.8903,-94.0367,2.0,330.1155278,9.653652159,-99999.0,'11133222,11111222,99999999' 
TABS,ioos:station:wmo:42046:1,2012-12-03T10:00:00Z,27.8903,-94.0367,2.0,302.1567772,10.05199483,-99999.0,'11111222,11111222,99999999' 
TABS,ioos:station:wmo:42046:1,2012-12-03T10:30:00Z,27.8903,-94.0367,2.0,304.0346958,5.538781454,-99999.0,'11133222,11111222,99999999' 
TABS,ioos:station:wmo:42046:1,2012-12-03T11:00:00Z,27.8903,-94.0367,2.0,320.3012298,9.643754456,-99999.0,'11133222,11111222,99999999' 
TABS,ioos:station:wmo:42046:1,2012-12-03T11:30:00Z,27.8903,-94.0367,2.0,337.3993235,4.657692562,-99999.0,'11133222,11111222,99999999' 
TABS,ioos:station:wmo:42046:1,2012-12-03T12:00:00Z,27.8903,-94.0367,2.0,334.4961306,4.830734934,-99999.0,'11133222,11111222,99999999' 
TABS,ioos:station:wmo:42046:1,2012-12-03T12:30:00Z,27.8903,-94.0367,2.0,336.3482928,5.807865357,-99999.0,'11133222,11111222,99999999' 
TABS,ioos:station:wmo:42046:1,2012-12-03T13:00:00Z,27.8903,-94.0367,2.0,345.650912,5.326161845,-99999.0,'11133222,11111222,99999999' 
TABS,ioos:station:wmo:42046:1,2012-12-03T13:30:00Z,27.8903,-94.0367,2.0,330.6378598,6.68934227,-99999.0,'11133222,11111222,99999999' 
TABS,ioos:station:wmo:42046:1,2012-12-03T14:00:00Z,27.8903,-94.0367,2.0,339.6359253,10.14401301,-99999.0,'11111222,11111222,99999999' 
TABS,ioos:station:wmo:42046:1,2012-12-03T14:30:00Z,27.8903,-94.0367,2.0,359.9503014,11.48000436,-99999.0,'11111222,11144222,99999999' 
TABS,ioos:station:wmo:42046:1,2012-12-03T15:00:00Z,27.8903,-94.0367,2.0,6.997623426,7.798083098,-99999.0,'11133222,11111222,99999999' 
TABS,ioos:station:wmo:42046:1,2012-12-03T15:30:00Z,27.8903,-94.0367,2.0,355.5964029,8.595376664,-99999.0,'11133222,11111222,99999999' 
TABS,ioos:station:wmo:42046:1,2012-12-03T16:00:00Z,27.8903,-94.0367,2.0,353.5403936,10.57715463,-99999.0,'11111222,11111222,99999999' 
TABS,ioos:station:wmo:42046:1,2012-12-03T16:30:00Z,27.8903,-94.0367,2.0,355.6062572,9.267237992,-99999.0,'11133222,11111222,99999999' 
TABS,ioos:station:wmo:42046:1,2012-12-03T17:00:00Z,27.8903,-94.0367,2.0,336.7820322,7.660417743,-99999.0,'11133222,11111222,99999999' 
TABS,ioos:station:wmo:42046:1,2012-12-03T17:30:00Z,27.8903,-94.0367,2.0,351.3334155,6.038956864,-99999.0,'11133222,11111222,99999999' 
TABS,ioos:station:wmo:42046:1,2012-12-03T18:00:00Z,27.8903,-94.0367,2.0,352.3191848,9.202570293,-99999.0,'11133222,11111222,99999999' 
TABS,ioos:station:wmo:42046:1,2012-12-03T18:30:00Z,27.8903,-94.0367,2.0,323.7132261,6.488335688,-99999.0,'11133222,11111222,99999999' 
TABS,ioos:station:wmo:42046:1,2012-12-03T19:00:00Z,27.8903,-94.0367,2.0,358.3061935,10.82473094,-99999.0,'11111222,11111222,99999999' 
TABS,ioos:station:wmo:42046:1,2012-12-03T19:30:00Z,27.8903,-94.0367,2.0,344.3861529,7.839298438,-99999.0,'11133222,11111222,99999999' 
TABS,ioos:station:wmo:42046:1,2012-12-03T20:00:00Z,27.8903,-94.0367,2.0,2.880581276,7.960056532,-99999.0,'11133222,11111222,99999999' 
TABS,ioos:station:wmo:42046:1,2012-12-03T20:30:00Z,27.8903,-94.0367,2.0,1.880283428,8.534594308,-99999.0,'11133222,11111222,99999999' 
TABS,ioos:station:wmo:42046:1,2012-12-03T21:00:00Z,27.8903,-94.0367,2.0,13.97012208,10.47997137,-99999.0,'11111222,11111222,99999999' 
TABS,ioos:station:wmo:42046:1,2012-12-03T21:30:00Z,27.8903,-94.0367,2.0,23.82960421,7.870984691,-99999.0,'11133222,11111222,99999999' 
TABS,ioos:station:wmo:42046:1,2012-12-03T22:00:00Z,27.8903,-94.0367,2.0,8.262616073,6.123561055,-99999.0,'11133222,11111222,99999999' 
TABS,ioos:station:wmo:42046:1,2012-12-03T22:30:00Z,27.8903,-94.0367,2.0,0.174625888,6.570030441,-99999.0,'11133222,11111222,99999999' 
TABS,ioos:station:wmo:42046:1,2012-12-03T23:00:00Z,27.8903,-94.0367,2.0,345.0599355,4.150301194,-99999.0,'11133222,11111222,99999999' 
TABS,ioos:station:wmo:42046:1,2012-12-03T23:30:00Z,27.8903,-94.0367,2.0,328.7072446,0.596824932,-99999.0,'11133222,11111222,99999999' 
TABS,ioos:station:wmo:42046:1,2012-12-04T00:00:00Z,27.8903,-94.0367,2.0,356.8821287,2.573810405,-99999.0,'11133222,11111222,99999999' 
TABS,ioos:station:wmo:42046:1,2012-12-04T00:30:00Z,27.8903,-94.0367,2.0,337.9060318,1.090045871,-99999.0,'11133222,11111222,99999999' 
TABS,ioos:station:wmo:42046:1,2012-12-04T01:00:00Z,27.8903,-94.0367,2.0,169.1697353,1.170854389,-99999.0,'11133222,11111222,99999999' 
TABS,ioos:station:wmo:42046:1,2012-12-04T01:30:00Z,27.8903,-94.0367,2.0,280.8065413,2.453507693,-99999.0,'11133222,11111222,99999999' 
TABS,ioos:station:wmo:42046:1,2012-12-04T02:00:00Z,27.8903,-94.0367,2.0,323.8421096,2.898223594,-99999.0,'11133222,11111222,99999999' 
TABS,ioos:station:wmo:42046:1,2012-12-04T02:30:00Z,27.8903,-94.0367,2.0,183.2958978,1.913164917,-99999.0,'11133222,11111222,99999999' 
TABS,ioos:station:wmo:42046:1,2012-12-04T03:00:00Z,27.8903,-94.0367,2.0,270.9512987,2.410331927,-99999.0,'11133222,11111222,99999999' 
TABS,ioos:station:wmo:42046:1,2012-12-04T03:30:00Z,27.8903,-94.0367,2.0,228.3469715,4.965289518,-99999.0,'11133222,11111222,99999999' 
TABS,ioos:station:wmo:42046:1,2012-12-04T04:00:00Z,27.8903,-94.0367,2.0,203.4174884,4.805850601,-99999.0,'11133222,11111222,99999999' 
TABS,ioos:station:wmo:42046:1,2012-12-04T04:30:00Z,27.8903,-94.0367,2.0,238.5475916,1.207393888,-99999.0,'11133222,11111222,99999999' 
TABS,ioos:station:wmo:42046:1,2012-12-04T05:00:00Z,27.8903,-94.0367,2.0,190.7840622,0.427551167,-99999.0,'11133222,11111222,99999999' 
TABS,ioos:station:wmo:42046:1,2012-12-04T05:30:00Z,27.8903,-94.0367,2.0,191.8728524,3.791108017,-99999.0,'11133222,11111222,99999999' 
TABS,ioos:station:wmo:42046:1,2012-12-04T06:00:00Z,27.8903,-94.0367,2.0,159.7172779,0.490407993,-99999.0,'11133222,11111222,99999999' 
TABS,ioos:station:wmo:42046:1,2012-12-04T06:30:00Z,27.8903,-94.0367,2.0,191.1128041,0.570701323,-99999.0,'11133222,11111222,99999999' 
TABS,ioos:station:wmo:42046:1,2012-12-04T07:00:00Z,27.8903,-94.0367,2.0,234.7272401,2.510975906,-99999.0,'11133222,11111222,99999999' 
TABS,ioos:station:wmo:42046:1,2012-12-04T07:30:00Z,27.8903,-94.0367,2.0,316.0233435,0.792085854,-99999.0,'11133222,11111222,99999999' 
TABS,ioos:station:wmo:42046:1,2012-12-04T08:00:00Z,27.8903,-94.0367,2.0,264.4808979,4.159278784,-99999.0,'11133222,11111222,99999999' 
TABS,ioos:station:wmo:42046:1,2012-12-04T08:30:00Z,27.8903,-94.0367,2.0,253.9260425,1.842009772,-99999.0,'11133222,11111222,99999999' 
TABS,ioos:station:wmo:42046:1,2012-12-04T09:00:00Z,27.8903,-94.0367,2.0,221.2798158,2.288776966,-99999.0,'11133222,11111222,99999999' 
TABS,ioos:station:wmo:42046:1,2012-12-04T09:30:00Z,27.8903,-94.0367,2.0,17.30797345,3.697418018,-99999.0,'11133222,11111222,99999999' 
TABS,ioos:station:wmo:42046:1,2012-12-04T10:00:00Z,27.8903,-94.0367,2.0,279.4192988,4.338490521,-99999.0,'11133222,11111222,99999999' 
TABS,ioos:station:wmo:42046:1,2012-12-04T10:30:00Z,27.8903,-94.0367,2.0,298.5068918,2.640075756,-99999.0,'11133222,11111222,99999999' 
TABS,ioos:station:wmo:42046:1,2012-12-04T11:00:00Z,27.8903,-94.0367,2.0,129.3692252,0.50447993,-99999.0,'11133222,11111222,99999999' 
TABS,ioos:station:wmo:42046:1,2012-12-04T11:30:00Z,27.8903,-94.0367,2.0,304.4725542,0.812711511,-99999.0,'11133222,11111222,99999999' 
TABS,ioos:station:wmo:42046:1,2012-12-04T12:00:00Z,27.8903,-94.0367,2.0,256.4086624,3.744863148,-99999.0,'11133222,11111222,99999999' 
TABS,ioos:station:wmo:42046:1,2012-12-04T12:30:00Z,27.8903,-94.0367,2.0,235.0971651,0.524309069,-99999.0,'11133222,11111222,99999999' 
TABS,ioos:station:wmo:42046:1,2012-12-04T13:00:00Z,27.8903,-94.0367,2.0,195.2548726,2.622403478,-99999.0,'11133222,11111222,99999999' 
TABS,ioos:station:wmo:42046:1,2012-12-04T13:30:00Z,27.8903,-94.0367,2.0,207.4450522,3.493150441,-99999.0,'11133222,11111222,99999999' 
TABS,ioos:station:wmo:42046:1,2012-12-04T14:00:00Z,27.8903,-94.0367,2.0,185.1096131,7.971681128,-99999.0,'11133222,11111222,99999999' 
TABS,ioos:station:wmo:42046:1,2012-12-04T14:30:00Z,27.8903,-94.0367,2.0,209.8396013,6.732614648,-99999.0,'11133222,11111222,99999999' 
TABS,ioos:station:wmo:42046:1,2012-12-04T15:00:00Z,27.8903,-94.0367,2.0,202.1249632,5.257118983,-99999.0,'11133222,11111222,99999999' 
TABS,ioos:station:wmo:42046:1,2012-12-04T15:30:00Z,27.8903,-94.0367,2.0,179.9997895,3.23,-99999.0,'11133222,11111222,99999999' 
TABS,ioos:station:wmo:42046:1,2012-12-04T16:00:00Z,27.8903,-94.0367,2.0,199.3777483,3.074150289,-99999.0,'11133222,11111222,99999999' 